Theta_e
315 315 314 316 316 315 314 314 315 316 315 314 314 315 315 313 314 315 317 317 317 318 314 316 318 317 319 318 315 319 320 316 312 310 309 309 313 314 318 321 322 323 325 327 328 328 328 328 328 326 325 325 325 324 323 322 322 322 322 322 322 322 321 319 319 320 321 321 321 321 320 320 319 319 319 319 318 317 317 317 317 317 317 316 317
316 314 316 316 315 315 316 316 316 317 314 316 315 314 314 313 314 314 314 312 315 316 315 317 316 316 317 316 314 319 318 315 312 310 310 310 311 311 315 319 321 323 325 326 326 327 327 327 327 325 325 325 324 323 321 322 322 322 322 322 321 322 321 320 320 321 320 320 320 319 319 319 317 317 316 317 316 316 316 316 316 316 315 315 316
317 317 316 316 315 315 316 316 315 316 316 318 313 315 313 315 316 314 313 314 313 312 316 317 314 315 314 313 315 316 316 314 312 311 311 311 311 308 310 316 320 322 324 325 326 326 326 326 326 325 325 324 322 321 321 321 322 322 322 321 321 321 321 320 320 320 319 319 319 318 317 316 316 315 315 315 315 315 315 314 314 315 315 314 314
317 317 317 316 315 315 316 315 316 316 316 317 316 316 316 316 313 311 312 314 314 314 313 315 317 318 315 316 316 318 318 316 314 312 310 309 310 306 306 308 314 317 322 323 324 324 325 325 325 324 323 322 322 321 321 321 322 321 322 321 321 320 320 320 320 319 319 319 318 316 316 316 314 315 314 314 314 314 314 313 314 313 313 313 314
317 318 316 316 316 316 315 317 318 318 317 317 316 316 314 312 314 315 315 315 316 318 318 314 317 314 312 314 318 316 315 315 313 312 310 310 309 305 304 302 302 310 314 319 322 323 323 322 322 321 320 320 321 321 320 320 322 321 321 322 321 320 319 318 318 318 317 318 317 316 315 314 314 313 313 313 313 313 313 313 313 313 314 313 313
318 317 317 316 317 317 318 318 317 317 317 317 316 316 316 314 313 313 315 314 315 315 313 311 315 312 312 316 317 317 315 314 311 310 309 309 308 304 303 301 300 300 304 312 317 320 320 321 321 321 321 320 320 319 319 319 320 321 320 321 321 321 320 319 318 317 316 316 316 315 314 314 313 313 313 313 313 312 313 312 312 312 313 313 312
319 319 317 317 317 317 316 318 318 317 316 318 319 317 316 317 312 314 313 312 311 313 312 311 314 314 313 316 316 313 312 313 309 306 305 303 304 302 301 300 300 299 302 301 308 314 318 318 317 316 316 317 319 319 318 317 318 320 319 320 319 320 319 318 317 317 316 315 315 313 313 313 313 312 312 313 312 312 312 312 312 312 313 312 312
320 319 318 318 318 318 318 318 317 317 318 319 317 317 316 315 313 317 313 310 310 314 312 311 310 314 315 316 316 315 312 308 306 304 302 301 301 299 299 299 298 299 302 300 302 307 313 315 314 314 313 312 313 315 316 315 316 318 319 319 318 318 317 316 315 315 315 314 313 313 312 312 312 312 312 311 312 312 312 312 312 311 311 312 312
320 320 320 319 318 318 319 319 318 318 318 318 317 318 317 317 314 316 317 311 310 310 311 311 314 312 310 313 315 313 308 306 305 304 302 299 297 297 298 297 298 304 299 300 300 300 309 313 313 312 312 311 310 310 311 312 314 316 317 317 317 317 316 315 313 314 313 312 312 312 312 311 311 310 311 311 312 311 311 311 312 311 311 311 311
321 321 320 320 320 319 319 319 318 319 319 317 318 317 315 317 315 311 313 313 311 313 311 310 311 311 308 309 311 310 307 304 302 300 299 297 297 297 297 297 297 296 298 298 298 298 298 305 309 310 311 311 308 307 307 308 311 314 315 316 316 315 316 315 312 312 312 312 311 311 311 311 311 311 311 311 311 311 311 311 311 311 311 310 310
322 322 321 320 320 320 320 319 319 319 319 317 317 314 314 314 316 313 311 313 314 312 313 311 309 309 310 310 309 307 305 302 300 297 297 297 297 297 297 296 297 296 296 296 295 294 294 294 297 299 304 308 306 305 304 305 308 310 313 315 315 314 314 314 312 311 311 311 311 311 310 310 310 310 310 311 310 310 311 310 310 311 311 310 310
322 322 322 321 320 320 320 319 319 319 318 317 316 314 314 313 313 315 313 311 311 311 310 310 306 306 307 310 308 307 304 302 299 297 297 296 297 296 297 295 295 295 295 295 294 293 293 293 296 297 300 304 303 302 301 302 305 307 309 313 314 314 313 313 312 311 310 310 310 310 310 310 310 310 310 310 310 310 311 310 310 310 310 310 309
322 323 323 321 321 321 320 319 319 319 319 318 317 316 316 316 315 312 314 311 311 308 308 310 309 307 307 305 307 307 305 302 298 297 297 296 295 294 293 294 293 295 294 294 293 292 292 293 293 295 295 295 297 299 298 299 301 306 307 309 313 313 313 312 312 310 309 310 310 309 308 309 309 310 310 310 310 310 310 309 310 310 310 309 309
322 324 323 323 322 321 320 320 319 319 319 319 317 314 315 314 313 312 311 314 312 312 312 311 305 305 304 305 307 307 303 300 298 297 296 295 293 292 291 294 293 293 293 294 293 293 293 292 293 294 294 294 293 291 291 292 295 302 305 305 309 311 312 311 312 310 308 309 309 308 308 308 308 309 310 309 309 309 309 309 309 309 309 310 310
323 322 324 324 323 323 321 321 319 319 318 317 316 314 315 315 314 317 312 310 312 310 312 311 305 304 303 305 304 304 305 303 301 298 297 294 291 290 291 293 294 293 293 293 292 292 293 292 294 295 293 292 291 290 290 293 295 298 301 303 306 309 310 310 310 308 308 307 308 308 308 308 308 309 309 309 309 309 308 309 309 309 308 309 310
323 323 323 324 324 323 323 321 320 319 319 318 316 316 315 316 315 315 316 314 314 313 312 309 304 307 304 303 300 301 297 302 298 297 294 293 290 290 291 293 292 291 291 294 292 291 291 292 294 293 293 291 290 289 290 289 294 296 297 300 302 306 307 309 309 308 307 307 308 308 307 307 307 308 308 309 308 308 308 308 308 308 308 309 309
323 323 322 324 324 324 323 322 321 319 319 319 318 317 317 317 317 315 315 317 313 311 311 309 307 311 306 299 297 296 297 296 296 295 295 291 291 290 290 290 291 292 292 292 291 291 292 292 292 292 291 290 289 288 288 288 288 292 291 297 300 302 305 306 307 307 307 306 307 307 307 306 306 307 307 308 308 307 308 308 307 307 307 308 308
324 324 324 323 324 324 324 322 321 320 319 320 319 317 317 317 317 317 315 315 316 311 311 308 308 309 306 304 302 297 295 295 298 294 295 291 290 290 289 290 289 291 292 292 291 290 291 292 292 291 290 289 288 288 288 288 291 289 291 296 300 301 302 303 304 305 306 305 306 307 307 306 306 306 306 306 307 306 307 307 307 307 307 308 308
323 324 324 323 324 325 324 323 322 321 319 319 318 318 318 318 317 316 317 315 313 312 312 312 306 308 305 303 302 296 297 299 298 290 290 294 291 290 290 290 290 289 292 292 291 290 290 291 292 291 289 288 287 287 286 287 291 293 297 299 300 300 300 300 301 303 303 304 304 305 306 306 306 306 306 305 306 306 306 306 306 307 307 307 307
323 324 324 324 324 325 324 323 322 321 318 319 320 318 318 318 317 318 317 316 315 314 312 311 311 309 304 303 298 296 296 294 293 294 292 291 292 291 291 290 291 289 291 291 290 290 290 290 291 290 288 287 287 286 286 286 286 287 292 298 299 299 299 300 299 299 300 301 303 304 304 305 305 305 306 305 305 305 305 306 306 306 306 306 306
324 324 324 325 322 324 324 323 323 321 316 319 319 319 318 318 316 316 317 316 316 316 313 312 311 310 303 302 298 298 293 295 292 291 290 290 290 289 289 290 290 290 289 289 289 290 291 290 290 289 288 287 286 286 286 286 286 286 294 296 298 298 299 300 299 299 298 298 298 301 302 303 304 304 305 305 304 304 305 305 305 305 306 306 307
324 324 324 325 324 323 324 323 323 322 317 319 319 319 318 318 318 318 318 316 315 314 314 312 312 312 309 307 305 296 295 293 291 292 289 292 291 291 290 289 288 289 289 288 288 289 290 290 290 288 287 286 286 285 285 286 286 287 291 294 295 296 298 300 299 298 297 297 297 297 298 299 302 304 304 304 304 304 304 304 305 305 305 306 305
324 324 324 325 325 323 323 323 323 321 318 319 319 319 319 318 318 318 317 317 315 314 312 313 311 310 307 307 307 304 302 298 295 292 293 289 290 291 291 289 287 287 289 288 288 288 290 290 289 287 286 286 285 286 286 287 290 291 292 293 294 295 296 297 298 298 297 296 297 297 297 297 298 300 302 303 303 304 304 304 304 304 305 305 304
324 324 324 325 324 324 322 322 322 322 320 320 320 319 319 318 318 318 318 317 316 314 314 312 309 309 307 306 307 305 304 301 298 296 295 294 294 291 291 287 286 286 288 289 288 288 288 288 288 287 286 286 286 286 286 287 289 291 288 292 292 294 294 296 298 297 296 296 296 296 296 297 297 298 298 300 301 302 303 304 304 304 304 304 304
324 324 324 324 324 324 323 322 322 321 321 320 320 319 319 318 318 317 317 316 316 315 314 312 310 308 308 306 306 304 303 299 294 294 294 293 293 289 288 286 287 285 287 288 287 286 287 287 287 286 286 286 287 285 285 286 287 290 288 288 291 292 293 294 297 296 296 295 296 295 295 295 297 297 297 297 298 299 301 303 303 303 303 303 304
324 324 325 324 323 324 323 324 323 323 321 321 321 320 319 319 318 317 317 317 316 315 315 313 310 309 308 306 303 302 301 296 292 291 292 290 289 290 287 284 283 284 285 287 286 286 285 286 286 285 285 285 285 285 285 286 287 291 289 286 288 291 292 293 295 295 295 295 295 295 295 295 295 296 296 297 297 297 298 300 301 302 302 302 303
325 325 323 324 323 324 323 324 324 323 321 321 320 319 318 318 317 317 317 316 316 316 315 313 309 307 305 305 304 302 301 296 293 291 291 292 292 290 288 286 282 283 284 282 284 286 284 284 285 285 285 285 285 285 286 286 290 290 287 283 283 289 290 291 293 294 294 294 294 294 294 294 294 295 294 295 296 296 297 298 298 298 299 300 301
325 324 324 324 324 323 322 322 323 323 322 321 320 319 318 318 318 317 317 315 316 314 314 312 311 307 305 304 303 302 299 294 293 292 290 290 290 290 290 289 285 281 282 283 282 283 285 284 285 284 285 285 286 286 288 287 286 288 286 283 282 284 289 290 292 292 293 292 293 293 293 293 294 294 293 293 293 294 295 296 296 297 296 297 299
323 321 323 322 323 323 322 321 321 322 321 320 320 320 319 319 319 317 316 313 313 313 311 309 309 306 303 301 302 301 296 292 291 290 290 289 289 288 289 288 287 284 281 281 280 282 285 283 282 285 284 285 286 286 285 285 287 285 282 282 282 282 287 289 290 290 291 292 292 292 292 292 292 292 292 292 292 293 294 294 294 294 295 296 296
321 320 321 320 321 316 321 320 320 320 321 321 320 320 319 319 319 318 317 313 312 310 309 308 307 303 301 298 297 296 292 290 290 289 288 288 287 287 286 285 286 286 283 282 282 281 283 284 283 283 284 285 286 286 285 285 288 284 282 281 282 282 286 287 288 289 290 291 291 291 291 292 292 291 291 291 291 292 293 294 294 294 294 295 296
317 318 318 319 319 318 319 320 319 319 320 320 319 319 318 318 316 316 313 311 311 309 306 305 303 300 297 296 294 294 291 290 289 288 286 287 287 286 285 284 284 285 284 281 281 280 284 283 284 284 284 284 285 284 284 284 286 283 281 281 282 285 284 284 286 287 289 290 289 289 290 291 291 291 291 291 291 292 292 293 293 292 293 294 295
319 319 318 318 317 316 316 317 318 318 318 319 318 318 317 317 314 312 309 309 308 306 301 300 301 299 298 296 293 292 290 289 288 287 286 285 286 286 286 285 284 283 283 280 281 282 282 282 283 283 284 284 284 284 283 283 284 284 281 281 281 283 280 279 283 285 287 289 288 288 289 289 289 289 290 290 290 291 291 292 291 292 293 293 294
318 317 317 317 317 316 315 315 317 317 316 316 316 316 315 314 312 312 308 307 307 305 302 298 298 297 296 295 293 291 289 289 288 286 286 285 284 285 286 284 284 284 283 281 281 281 282 282 283 283 284 283 282 283 282 282 281 282 282 280 279 279 279 279 279 282 285 287 286 287 288 288 288 288 289 288 289 289 290 290 290 290 291 292 292
316 318 317 317 315 315 315 316 316 316 316 317 314 314 312 312 310 310 307 305 306 305 302 301 297 297 296 295 291 289 288 289 287 286 285 284 284 285 285 285 284 285 283 281 281 282 281 282 282 283 283 283 282 283 281 281 281 281 279 279 279 279 279 279 279 279 284 286 286 286 287 287 287 287 287 287 288 288 289 290 289 290 291 291 291
313 316 316 315 314 314 314 315 316 315 315 315 314 313 313 312 310 307 306 305 305 304 300 300 297 294 292 292 290 288 287 287 286 286 284 284 284 285 284 284 284 284 283 282 281 280 281 281 282 282 282 283 282 282 282 282 281 280 279 279 278 279 279 279 279 279 283 285 285 285 286 286 286 286 286 286 287 287 288 288 288 288 289 290 290
313 312 313 315 314 314 315 314 314 314 313 312 310 309 310 308 308 307 305 304 305 304 301 299 295 292 292 291 289 288 287 286 285 284 284 284 284 284 284 284 284 284 283 282 282 281 281 281 281 281 282 281 281 282 282 281 280 280 280 279 278 278 278 279 278 278 281 284 283 283 284 284 284 285 285 285 286 286 286 287 287 287 288 288 289
311 311 311 313 314 315 315 314 313 312 311 311 310 308 308 308 308 307 305 304 304 303 301 299 294 293 292 292 289 287 286 286 284 283 283 283 283 284 284 284 284 284 284 283 282 282 281 281 281 282 282 281 281 281 281 280 280 279 279 278 277 277 278 278 279 280 281 282 281 282 282 282 283 283 284 284 285 285 285 286 286 286 287 288 288
309 311 313 312 313 314 314 314 313 312 310 309 308 308 308 306 306 306 304 302 301 300 298 296 293 292 291 290 288 287 286 285 284 284 284 284 283 283 283 283 283 284 283 282 282 282 281 281 281 281 281 281 280 280 280 280 279 278 278 277 277 277 277 277 278 279 278 278 277 278 279 280 281 282 283 283 284 284 284 285 285 286 286 287 288
310 310 309 311 310 312 313 312 311 311 311 309 308 306 306 305 304 302 298 296 296 295 294 293 292 291 291 290 288 287 286 285 284 284 284 284 284 283 283 284 284 284 283 282 282 282 281 281 281 281 281 281 281 279 280 280 279 278 277 274 275 277 277 276 275 276 277 276 278 279 279 279 280 279 280 281 282 283 283 283 284 285 286 287 287
307 308 309 309 308 307 310 310 311 309 307 305 305 306 305 303 300 297 295 294 293 292 290 290 290 290 289 288 288 287 287 285 284 284 284 284 284 283 283 284 284 284 283 282 281 281 281 281 280 280 280 280 279 279 279 278 278 277 277 275 274 275 276 276 275 275 276 275 274 274 276 277 276 277 279 278 279 281 281 281 281 283 285 286 286
301 302 303 303 302 302 301 302 303 303 305 305 303 303 303 300 298 297 295 293 292 291 290 289 288 288 288 287 287 287 286 285 286 286 286 286 285 283 283 284 283 283 283 282 282 281 281 281 280 280 280 279 279 278 277 277 277 276 277 277 275 276 277 275 273 274 276 275 274 272 271 271 272 272 273 273 275 277 276 279 279 283 285 286 286
296 296 297 298 298 299 299 297 297 299 301 302 297 298 298 299 297 296 294 293 292 291 289 288 287 287 287 286 286 286 285 285 285 286 287 287 287 286 285 284 284 283 282 282 281 281 281 280 280 280 279 279 279 279 278 278 278 277 275 274 273 276 276 273 272 272 275 275 272 271 270 271 270 271 270 271 273 275 274 274 277 283 284 285 285
293 292 293 295 294 294 296 297 296 296 298 298 295 297 298 296 295 294 293 292 291 290 289 289 288 287 286 286 286 285 285 284 284 286 288 288 288 287 287 286 286 284 283 281 281 282 281 281 281 280 280 279 280 279 279 278 277 276 276 276 275 275 273 270 267 270 275 274 270 267 269 269 269 269 270 269 271 272 274 275 282 284 284 285 284
291 290 293 293 293 292 293 293 293 292 292 294 295 295 296 296 294 293 292 291 290 289 289 288 288 287 286 285 285 285 284 283 283 284 286 287 288 287 287 287 287 287 287 284 282 281 281 280 280 280 280 280 279 279 278 278 276 276 276 276 275 275 273 271 271 269 272 275 271 268 269 267 267 268 268 269 271 271 273 278 282 284 284 284 284
288 290 290 290 291 290 291 292 292 291 291 293 295 295 295 295 294 293 291 290 289 289 288 288 288 287 286 285 283 283 284 284 284 284 285 285 287 287 287 287 287 287 287 287 287 284 283 282 280 280 280 280 278 278 279 278 278 275 275 275 275 275 274 273 272 271 273 274 271 267 266 268 267 269 268 269 269 270 271 276 282 283 284 283 283
288 289 288 289 289 289 290 290 291 291 291 292 294 294 294 294 294 292 289 289 289 288 288 288 287 286 285 284 283 283 283 283 284 284 284 284 284 284 284 284 284 285 287 287 286 285 284 283 281 280 281 280 279 280 280 280 277 275 275 274 276 275 275 274 274 273 272 271 269 269 267 265 265 267 267 268 268 269 268 275 280 282 283 283 282
288 288 288 289 289 289 289 290 290 290 290 291 293 293 293 294 293 291 288 288 288 287 286 286 285 285 285 285 284 284 283 283 284 284 283 283 284 283 283 283 283 283 284 284 284 283 282 282 281 281 280 281 280 280 280 280 279 278 277 276 277 277 276 275 272 271 269 270 269 270 265 265 264 265 266 266 268 268 267 272 278 281 281 282 282
287 287 287 287 288 288 288 288 289 289 289 291 292 292 293 293 293 289 288 287 287 286 286 286 285 285 285 284 283 283 283 283 284 286 285 284 283 282 282 282 282 282 283 284 286 285 283 282 281 280 280 281 282 280 280 280 278 278 279 278 277 275 273 271 271 267 266 267 270 269 263 262 262 266 266 266 266 266 268 264 275 279 280 280 281
287 287 287 286 287 287 287 288 288 288 288 289 291 292 292 293 291 287 286 286 286 286 284 283 284 283 283 282 281 281 281 281 284 287 287 285 282 282 281 281 281 281 281 282 285 286 285 284 284 284 283 284 284 284 284 283 281 279 276 275 273 273 271 269 269 267 267 266 270 271 265 263 262 265 267 266 265 267 264 264 264 275 278 279 279
287 286 286 286 286 287 287 287 288 288 287 287 290 291 292 292 290 287 286 286 285 284 283 282 282 282 282 282 281 280 280 281 285 287 287 285 282 282 281 280 280 280 280 281 281 283 285 285 285 284 284 284 284 285 284 284 284 281 276 274 274 273 272 271 270 269 269 268 269 271 264 261 261 265 267 267 265 261 261 260 266 271 275 274 276
286 286 286 286 286 286 286 286 286 287 286 286 289 291 291 292 289 286 286 286 285 284 283 282 282 282 281 282 282 281 281 282 286 287 288 284 282 282 281 280 280 279 280 280 279 280 281 281 281 282 282 283 283 283 283 285 285 283 279 278 273 273 272 271 271 269 268 267 269 270 267 262 263 265 266 265 262 263 260 260 266 266 266 268 267
Wind_Speed
5 5 4 5 4 4 3 4 4 5 3 4 4 4 4 2 3 3 1 3 1 0 1 0 1 2 2 1 1 4 5 4 3 3 3 3 4 5 8 8 8 8 7 7 9 11 11 12 13 12 12 13 13 13 13 13 14 14 14 14 14 14 15 16 16 16 17 18 18 18 18 19 19 19 19 20 21 21 21 21 21 22 23 24 24
6 6 6 5 5 4 5 5 5 5 4 5 5 3 3 3 3 3 3 2 1 1 1 3 3 2 2 1 2 4 4 5 4 4 3 3 3 4 7 7 7 7 7 9 9 9 10 12 13 12 12 12 13 12 13 13 13 14 14 14 14 15 15 16 16 17 17 18 18 18 19 18 19 20 20 20 20 21 21 22 22 22 24 24 23
5 6 5 6 5 5 6 6 6 6 6 6 3 5 4 5 5 5 3 0 2 0 1 2 3 3 1 2 4 3 4 4 4 4 4 4 3 3 4 8 6 6 8 9 9 9 10 12 13 12 12 12 13 13 13 13 13 13 14 14 15 15 16 16 16 17 18 17 18 18 18 19 19 19 20 20 21 21 22 22 23 23 23 24 25
5 5 5 6 5 5 5 5 6 6 6 6 5 5 5 5 4 3 2 1 0 0 1 1 2 4 2 1 3 5 5 3 4 4 4 3 4 3 5 5 7 7 6 8 10 10 11 12 13 13 12 12 13 13 13 13 13 13 14 14 15 15 15 16 16 17 17 17 17 18 18 18 19 19 20 20 21 21 22 23 23 24 24 25 26
6 6 6 6 6 5 5 6 6 6 5 5 5 4 4 3 3 1 1 0 1 3 0 1 4 3 0 2 4 3 3 4 4 5 4 3 5 4 4 4 4 7 7 7 9 12 12 12 12 12 12 12 13 13 14 14 14 14 14 14 14 15 15 16 16 16 17 17 17 17 17 18 18 19 20 20 21 22 22 22 23 24 24 25 26
6 6 6 6 6 6 6 6 6 5 5 5 6 5 6 4 4 2 3 2 3 3 1 1 0 0 2 3 4 4 3 5 5 5 4 4 4 3 3 4 4 4 4 7 8 9 12 13 12 12 12 12 13 14 14 14 14 14 14 14 14 15 16 16 16 16 16 16 17 17 17 18 19 19 19 20 21 22 22 23 23 25 25 25 27
6 7 7 6 6 7 6 7 6 5 5 6 7 7 5 5 3 2 0 1 2 1 2 3 1 2 1 4 4 3 2 5 4 4 4 4 4 3 3 3 3 4 4 4 7 9 10 12 13 13 13 13 13 13 15 15 15 14 14 14 14 15 15 16 16 16 16 16 17 17 17 18 18 19 19 20 21 21 23 23 25 25 24 26 27
7 7 7 7 7 7 7 7 6 5 6 6 6 5 5 4 3 3 3 2 2 1 2 2 2 2 1 5 4 3 4 4 4 4 3 4 4 4 3 3 3 3 4 4 4 5 8 9 11 12 13 13 13 14 15 16 15 15 14 14 14 14 14 15 15 16 16 16 16 16 17 17 18 18 19 20 21 22 22 24 24 25 25 25 26
8 8 8 8 8 7 7 7 6 6 6 7 6 6 5 4 3 5 5 5 4 4 1 1 4 2 1 3 5 5 5 5 5 5 3 4 4 4 3 3 3 4 3 3 3 3 6 8 9 10 10 12 14 15 16 16 16 15 15 14 14 14 14 15 15 15 15 15 15 16 17 17 18 19 20 21 21 22 23 24 24 25 25 26 27
8 8 8 8 8 8 7 7 6 7 7 6 7 5 5 5 5 4 5 5 4 6 3 2 2 3 2 3 4 4 5 4 4 4 5 4 4 4 4 3 3 3 3 3 3 3 3 5 7 7 9 10 14 15 17 17 16 15 15 14 13 13 13 14 14 14 14 15 15 16 17 17 18 19 20 21 22 22 23 24 25 26 26 26 27
9 8 8 8 7 8 7 7 7 7 7 7 6 5 4 4 6 4 2 4 7 6 6 5 2 3 3 3 3 3 3 3 4 4 4 4 4 4 3 3 3 3 4 3 2 3 4 4 5 5 6 13 14 16 17 16 15 15 14 13 13 12 12 13 14 14 14 15 16 16 16 18 18 19 20 21 22 23 23 24 25 26 26 26 27
9 8 8 8 7 8 8 7 7 7 7 7 6 6 6 5 5 6 4 1 1 5 5 5 4 4 2 1 2 0 3 4 3 4 4 4 4 3 4 1 3 3 4 3 3 3 4 4 4 5 5 9 15 15 16 15 14 14 14 13 12 12 12 13 14 14 14 15 16 16 17 18 19 19 21 22 22 23 24 24 25 25 26 26 28
9 8 8 8 8 7 8 7 6 7 7 8 7 7 7 8 7 4 7 4 2 2 3 5 5 3 4 2 3 2 1 0 3 4 4 4 3 4 3 3 3 4 4 4 4 4 4 4 4 4 5 6 7 12 14 14 13 13 14 13 13 12 12 13 14 14 14 15 15 16 17 18 19 20 21 21 22 23 24 24 25 26 25 27 27
9 9 8 8 8 7 7 7 6 7 7 7 6 6 6 5 5 3 1 5 5 5 5 6 0 4 4 0 1 1 2 1 1 1 2 3 3 4 4 4 4 3 2 4 3 3 3 4 4 5 5 6 6 6 6 6 8 13 13 14 13 12 12 12 13 14 15 15 15 16 17 18 19 20 21 21 23 23 24 25 25 25 25 26 27
9 9 8 8 8 8 7 6 6 6 6 6 6 6 6 7 6 7 3 1 2 3 6 6 5 4 3 5 2 2 1 0 0 0 0 0 2 4 4 5 5 4 3 4 3 2 1 3 5 5 5 6 6 6 5 5 6 10 12 13 13 13 12 13 13 13 14 15 15 16 17 18 19 20 21 22 22 23 24 24 25 25 26 26 27
8 9 8 8 8 8 7 6 7 6 7 8 7 7 6 6 6 6 6 4 3 4 5 6 5 8 3 3 3 4 2 7 4 1 1 0 2 4 3 5 4 3 3 5 4 3 2 4 5 5 5 5 5 5 5 4 5 7 8 9 13 13 13 13 13 14 14 14 15 16 17 18 19 20 21 22 22 23 23 24 25 25 26 27 28
10 10 10 10 9 8 8 8 7 7 7 8 8 9 8 8 9 7 7 7 6 4 5 5 5 6 8 5 2 1 5 3 4 3 1 1 1 1 2 4 5 5 5 4 3 3 5 5 5 5 5 6 5 4 4 3 3 3 5 7 12 13 13 13 13 13 14 14 15 16 17 18 19 20 20 21 22 23 23 25 25 26 27 28 28
11 11 11 10 10 11 9 9 8 8 8 8 7 6 7 7 9 9 8 6 7 5 5 4 5 6 4 3 6 5 5 3 6 5 0 2 2 1 3 3 3 5 4 5 4 3 4 6 5 6 5 5 5 4 3 3 3 4 4 6 12 12 12 13 13 13 13 14 15 16 17 18 19 20 21 21 22 23 24 25 26 26 27 27 28
12 11 11 11 11 11 10 10 10 9 8 8 8 9 8 9 7 7 8 7 6 7 8 7 3 5 5 3 1 1 5 7 7 3 3 3 2 3 3 3 2 4 5 5 4 4 3 5 6 6 5 5 4 4 3 3 5 6 9 11 11 11 12 12 12 12 13 15 16 16 17 18 19 20 21 21 22 24 24 25 26 26 27 27 28
12 12 12 12 11 11 11 10 10 10 9 9 10 8 7 7 8 9 8 8 9 9 7 7 9 6 5 4 2 2 3 2 3 7 5 7 5 2 1 3 1 3 5 6 5 6 5 4 6 6 5 4 4 3 3 3 4 4 4 11 11 11 11 11 11 12 13 15 16 16 17 18 19 20 21 22 23 24 24 25 26 26 26 27 28
12 11 11 12 11 11 11 11 11 10 8 9 8 8 10 9 8 8 8 7 8 8 8 9 8 8 5 4 3 4 2 2 3 3 3 5 3 6 4 0 1 3 4 4 4 4 6 5 5 5 5 5 4 3 3 3 5 4 5 11 11 11 12 11 11 11 12 13 14 16 17 19 20 21 22 23 23 23 24 24 25 26 26 26 27
10 10 11 12 11 11 11 12 12 10 9 10 9 9 9 9 10 10 10 10 7 8 9 8 9 8 8 8 8 3 3 2 3 4 2 3 6 9 7 8 8 5 3 4 4 3 4 6 5 4 4 5 4 4 3 3 3 3 5 11 11 12 12 12 11 11 11 12 14 15 17 18 20 21 22 22 23 23 23 24 25 25 25 26 27
9 10 11 11 12 11 12 11 10 10 10 10 10 10 9 9 9 9 10 11 9 9 9 8 9 9 8 7 9 9 9 7 7 5 6 4 2 5 5 7 6 5 5 4 4 3 4 6 6 4 3 4 4 4 4 3 3 5 11 11 11 11 11 11 10 11 11 13 14 16 17 18 19 21 21 22 22 22 23 23 24 24 25 25 25
10 10 11 11 11 11 11 10 11 10 11 10 9 9 8 8 8 9 10 10 9 10 10 10 9 8 9 7 7 7 7 8 7 9 9 7 8 6 7 3 1 3 1 2 1 4 3 4 4 5 4 4 3 3 3 2 3 8 6 9 10 10 11 11 11 12 12 13 14 16 17 18 19 19 20 20 21 21 22 22 23 23 24 26 28
12 11 12 12 11 11 11 12 11 11 10 9 10 10 9 9 10 10 10 11 10 10 9 11 10 10 10 8 8 8 9 7 6 7 7 5 7 5 2 1 6 3 1 3 3 3 4 3 3 3 3 3 3 3 3 2 2 6 7 6 10 10 12 12 13 13 13 13 15 15 16 17 18 18 18 19 19 20 20 21 22 22 24 24 26
12 13 12 11 11 12 12 12 12 11 11 11 10 10 10 10 10 10 11 10 9 11 11 11 10 11 8 8 8 7 7 6 7 6 7 6 6 8 6 1 2 4 0 1 1 4 2 2 1 1 2 3 3 3 3 2 2 6 8 6 6 11 13 13 13 13 13 13 14 15 15 16 16 16 17 18 18 19 19 20 21 22 22 24 24
11 11 8 10 11 10 11 12 11 11 10 10 10 9 9 9 8 10 9 8 10 10 9 10 10 9 7 8 8 8 8 7 7 7 6 8 8 8 10 7 1 1 2 0 0 3 4 1 1 0 1 2 3 3 3 2 4 8 8 6 4 10 13 13 13 13 13 13 14 14 14 15 15 15 16 16 17 18 18 19 20 20 22 23 24
8 8 9 9 10 11 11 11 11 10 10 11 10 9 9 10 9 9 10 7 9 11 10 10 10 10 9 7 6 8 6 7 7 7 7 7 6 7 9 10 11 5 1 3 2 3 4 4 1 2 2 3 3 3 3 4 3 8 8 5 5 5 11 12 12 12 12 12 12 13 13 14 14 15 15 16 16 16 17 18 19 20 20 22 23
8 7 8 9 10 10 11 11 11 10 10 10 10 10 10 11 11 10 10 8 8 10 9 9 8 7 7 8 9 7 7 6 5 6 6 5 6 7 8 11 9 9 7 6 7 5 5 2 4 3 2 1 3 3 4 3 5 6 5 5 4 4 9 11 11 11 10 11 11 12 12 12 13 14 14 14 15 15 16 17 18 19 20 21 23
9 8 8 9 10 10 10 10 10 10 11 10 11 11 11 10 11 11 10 9 9 7 7 8 8 7 7 6 6 6 5 6 7 6 6 7 7 7 7 5 7 10 7 8 7 4 3 1 1 3 2 2 3 3 3 4 7 7 5 4 4 4 10 11 11 10 10 10 11 12 12 12 12 13 13 13 14 15 15 16 17 18 20 21 23
7 8 8 9 10 9 10 10 9 10 10 10 10 10 10 10 10 10 9 9 10 10 8 7 6 6 7 8 7 6 5 5 5 5 4 6 6 6 5 5 4 6 9 6 5 3 3 5 0 1 4 2 2 4 3 4 5 6 5 4 3 7 8 7 10 10 9 9 11 12 12 12 12 13 13 13 14 14 15 16 17 18 20 21 22
9 9 9 10 10 10 9 10 10 10 10 10 10 10 10 10 9 9 8 10 9 9 7 6 6 8 8 9 8 7 6 5 4 4 5 4 5 6 6 6 4 4 7 6 6 5 2 2 3 2 3 3 3 5 3 3 5 7 4 4 3 5 4 4 7 10 9 9 11 12 11 11 12 12 13 13 13 14 15 16 16 17 19 20 21
9 9 10 11 10 10 10 10 11 10 10 9 8 9 9 10 9 11 10 10 11 9 9 8 6 7 8 8 8 7 7 8 6 5 5 5 4 4 5 6 6 4 6 5 6 4 1 2 3 3 3 4 2 2 4 3 4 3 4 3 3 3 3 3 4 7 9 8 11 11 11 11 12 12 13 13 13 13 14 15 15 16 18 19 20
10 11 12 10 9 9 10 10 10 10 10 11 10 9 9 10 10 9 8 9 10 9 8 10 9 8 8 9 8 7 7 8 8 7 7 6 6 6 6 6 6 6 3 4 3 5 5 1 2 1 1 1 3 1 5 4 3 3 4 3 3 1 2 3 4 4 10 8 11 10 10 11 12 12 13 13 13 13 14 14 15 16 17 19 19
8 10 10 9 9 9 9 10 10 10 11 11 10 11 12 13 12 10 8 10 11 11 11 11 10 8 7 7 7 7 5 7 7 7 6 7 6 7 7 5 6 5 3 3 5 3 7 4 2 3 2 1 2 2 3 3 3 3 3 2 2 2 2 2 3 3 8 8 12 10 10 11 12 12 12 12 12 12 13 13 14 14 16 18 19
9 8 7 9 8 9 10 10 10 10 11 10 9 9 10 8 7 9 9 10 11 13 13 12 10 10 11 9 8 9 8 9 8 7 6 6 7 7 7 5 5 5 3 3 3 5 3 7 3 4 2 3 2 3 3 3 3 3 2 0 0 1 2 3 3 3 5 8 11 10 10 11 12 12 12 12 11 11 11 12 13 13 15 17 18
7 7 7 7 9 10 11 11 10 9 8 9 11 10 8 8 9 9 10 11 12 12 12 11 11 11 11 11 10 10 9 9 7 7 7 8 7 7 7 6 6 5 4 4 4 4 6 6 4 1 1 1 2 2 2 3 2 2 1 1 1 2 2 2 3 3 4 7 9 10 10 11 12 12 13 12 11 11 10 11 12 13 15 17 18
7 7 8 8 9 10 10 10 10 11 11 9 8 9 10 9 8 9 10 10 10 9 8 8 9 10 11 10 10 11 11 12 11 9 8 9 7 7 7 6 6 5 5 4 4 5 5 5 6 4 1 3 2 2 2 2 3 2 1 2 3 2 1 3 3 2 1 2 3 5 6 7 9 12 13 12 11 11 10 11 12 13 14 16 17
7 8 7 8 8 9 10 9 9 9 10 11 9 7 6 7 9 9 8 7 6 6 5 7 9 9 9 9 11 11 12 11 12 12 11 9 8 9 8 8 7 7 6 5 5 5 5 5 2 3 4 2 3 3 1 1 2 2 3 1 2 3 2 1 2 2 1 3 3 5 6 6 8 7 10 11 11 10 11 11 12 14 14 16 17
7 7 7 7 6 5 6 7 9 8 6 6 6 8 9 8 8 7 7 7 6 4 4 4 5 7 7 8 9 10 11 10 10 10 11 11 8 8 6 7 8 8 7 6 5 5 5 5 4 4 3 4 1 2 2 3 2 2 3 2 3 2 2 1 2 2 2 2 4 4 4 5 5 7 8 8 10 11 11 11 12 14 15 16 16
2 3 4 4 4 4 3 3 3 4 5 7 7 7 8 7 7 8 8 7 7 6 5 4 4 4 5 5 7 9 9 10 11 10 11 11 11 10 7 8 9 8 7 6 6 6 4 5 4 3 4 4 5 5 5 6 7 6 3 2 3 2 2 3 4 2 2 1 3 2 3 2 3 4 4 5 6 9 9 11 10 13 15 16 16
2 1 2 2 4 5 5 4 3 3 4 4 8 12 10 8 8 7 7 7 8 7 7 7 6 6 7 7 7 12 12 11 10 11 11 11 11 11 13 12 11 9 8 8 7 6 6 7 6 6 6 7 7 8 7 5 3 3 2 3 2 2 1 4 4 3 2 2 4 5 4 2 1 4 3 4 5 5 5 6 6 8 12 14 15
3 3 3 4 4 4 5 5 5 5 4 5 7 10 11 11 8 6 7 7 6 6 7 9 10 9 8 7 6 8 9 9 8 11 12 12 11 9 12 13 13 14 11 8 7 7 8 7 5 5 7 8 8 6 8 5 3 6 4 3 2 2 1 1 2 4 0 1 2 2 5 2 1 4 5 3 4 4 5 5 11 11 12 13 15
1 1 1 2 1 1 1 1 3 3 3 4 6 7 8 10 9 7 5 6 7 7 7 8 8 7 7 7 6 5 6 6 6 7 9 11 10 10 13 12 11 9 7 9 10 8 7 7 7 9 7 9 6 7 6 6 6 5 4 4 4 3 3 3 3 3 2 1 3 3 6 2 1 2 4 4 4 3 5 8 11 10 11 13 14
2 2 1 1 1 1 1 2 3 3 3 3 6 8 9 11 11 8 6 6 8 8 8 8 7 7 6 5 6 5 5 9 7 6 7 7 8 10 11 12 11 11 10 5 3 8 10 8 9 8 10 7 6 8 9 7 6 7 5 5 5 5 4 4 5 3 3 1 2 2 4 3 2 4 5 5 3 4 5 8 11 10 11 12 14
2 2 2 2 1 2 2 3 2 1 2 3 6 8 9 9 9 8 5 6 5 4 4 3 3 3 4 5 6 6 5 7 7 7 7 7 7 7 7 7 7 8 9 9 8 7 8 9 8 10 8 7 7 5 7 7 9 8 7 6 6 5 6 6 2 3 2 1 1 0 4 4 0 2 5 5 3 5 3 7 11 10 10 12 14
2 1 1 1 1 1 1 1 2 2 2 2 5 7 8 9 10 8 5 5 5 5 5 5 5 6 9 10 9 8 8 9 8 9 9 9 8 7 7 6 7 7 7 8 8 7 6 5 6 4 2 5 2 4 7 7 7 5 6 5 6 5 2 1 2 1 2 1 2 2 4 5 1 2 4 4 5 5 4 5 10 10 10 11 13
2 2 2 2 2 1 1 2 2 3 0 2 5 7 9 9 10 6 5 5 5 6 8 8 8 6 5 6 8 7 7 7 7 11 9 8 8 9 8 6 6 5 7 5 4 4 5 4 4 3 3 4 6 6 8 7 5 4 4 3 3 3 4 3 4 1 1 2 2 2 2 4 2 1 4 4 4 4 4 3 7 10 9 11 13
3 2 2 2 2 2 2 2 3 2 1 1 5 7 9 10 8 4 3 3 2 1 0 1 1 2 3 3 4 4 4 4 6 11 11 9 8 9 9 8 7 6 8 4 5 7 8 7 7 7 7 8 10 12 13 14 9 7 6 5 7 5 5 4 3 2 4 2 2 4 2 4 3 0 5 4 3 4 3 3 3 7 8 11 12
3 2 2 2 2 2 2 2 2 2 1 1 4 7 10 12 9 6 5 5 4 4 4 4 5 5 7 10 8 7 8 8 11 15 15 12 10 10 10 10 10 10 9 5 4 5 9 9 9 9 9 9 11 13 14 14 15 12 9 10 6 6 6 6 5 4 3 2 4 5 2 5 2 2 4 5 4 3 3 4 3 5 6 7 10
3 3 3 3 2 2 2 3 4 3 2 2 3 5 8 10 9 6 6 6 6 6 6 6 5 5 5 7 10 8 9 10 16 17 19 14 11 12 12 11 12 12 11 9 9 8 7 6 6 6 6 9 8 8 9 16 16 13 10 8 6 8 7 7 6 2 3 5 6 7 3 3 1 3 0 5 3 4 1 1 3 4 3 2 4
Wind_Direction
190 193 161 194 209 201 199 219 219 238 200 230 220 239 243 224 229 234 208 214 213 35 54 257 246 191 181 206 96 106 132 134 139 128 110 93 77 65 70 64 66 70 74 90 98 99 101 100 97 90 86 82 78 74 69 64 59 54 49 45 42 41 39 35 32 31 29 29 26 23 22 20 18 15 13 11 8 6 4 1 356 357 354 355 356
193 182 170 204 212 207 205 218 217 224 204 231 217 217 232 230 199 187 208 213 153 218 121 167 202 211 191 227 73 142 139 145 148 137 121 101 79 65 67 72 70 74 86 88 88 98 104 100 99 95 90 86 79 72 65 58 54 50 47 45 41 37 36 34 32 29 29 28 25 23 21 19 17 13 11 10 6 4 1 359 357 357 355 356 352
190 187 191 199 203 199 212 206 211 223 203 225 178 194 199 191 181 190 201 194 241 302 67 166 198 259 180 226 103 117 126 137 134 128 122 115 94 74 63 65 62 65 86 88 93 97 102 105 100 96 91 84 77 69 62 57 52 47 44 42 41 37 35 33 31 29 27 27 25 22 19 17 14 12 11 7 4 3 2 358 357 358 354 353 350
195 195 198 201 205 200 207 190 210 218 200 216 190 200 194 209 201 192 202 201 176 200 182 160 206 227 246 37 148 128 135 135 132 135 134 125 104 84 75 72 64 50 64 88 88 88 89 89 86 83 80 77 72 66 58 52 48 46 42 40 38 38 35 33 31 29 26 24 23 20 17 14 12 10 8 6 4 2 -0 358 357 355 353 352 351
206 200 202 202 205 204 208 207 211 210 202 212 205 194 186 203 219 253 288 266 12 310 328 182 189 236 39 166 130 125 108 111 127 134 138 132 116 107 96 86 76 58 48 47 81 91 91 89 86 82 78 72 66 60 54 50 46 42 40 38 37 36 35 32 30 29 26 22 20 18 15 12 11 9 7 5 3 1 359 357 356 354 353 352 351
197 211 204 200 205 206 207 216 217 210 200 197 202 200 196 186 193 169 223 193 241 257 267 298 302 5 84 134 127 137 131 111 120 131 135 131 133 123 108 92 84 76 55 50 54 80 85 83 80 77 74 70 64 57 50 47 45 41 37 36 35 36 33 31 28 26 24 20 18 16 12 10 10 8 6 4 2 1 358 356 355 354 354 352 351
201 198 206 200 202 209 210 217 211 203 197 202 200 211 188 205 154 186 311 252 257 265 159 217 212 89 108 128 126 106 97 120 118 114 125 132 126 133 122 110 98 91 76 64 54 60 81 85 81 75 69 63 59 55 49 44 41 39 35 33 33 35 33 30 27 25 20 19 17 13 10 9 9 7 5 3 1 359 357 355 356 355 354 353 352
200 197 197 201 200 204 212 216 209 195 207 206 202 199 203 200 196 172 160 248 171 153 107 176 118 101 173 140 130 121 117 121 118 114 126 117 123 133 144 143 125 117 104 84 75 76 75 78 80 74 70 65 60 52 46 41 37 37 33 32 32 32 32 30 24 21 19 18 15 10 9 10 8 6 4 2 0 360 357 356 356 354 353 354 352
201 197 196 199 201 205 212 212 201 195 200 203 196 204 185 203 214 199 182 178 175 154 134 110 129 96 14 146 142 142 138 142 141 140 130 119 119 122 132 143 151 132 124 100 78 61 71 73 75 71 64 64 59 54 45 37 34 34 32 30 32 29 29 30 23 20 18 14 11 10 10 9 6 4 3 2 1 359 357 356 357 354 353 354 353
200 197 198 199 198 201 210 208 197 197 197 194 205 198 192 180 205 204 174 146 162 159 167 152 84 84 102 164 147 147 148 142 140 137 130 120 120 132 150 149 134 142 130 122 100 79 71 66 62 55 59 64 61 52 46 36 31 31 29 28 30 27 26 29 24 19 17 11 10 11 9 8 5 3 3 3 0 359 359 358 357 356 353 354 352
200 197 197 198 198 202 207 205 192 195 196 198 205 187 185 182 181 185 182 183 167 178 171 144 96 66 122 179 154 160 141 128 132 132 131 140 141 144 124 139 126 126 132 132 126 105 95 84 78 68 61 66 61 55 46 37 32 31 27 25 28 26 25 26 23 21 13 11 11 11 9 7 5 3 3 2 1 0 359 357 358 357 354 354 352
201 200 199 200 199 203 206 202 195 193 196 199 204 190 185 184 202 165 162 124 140 152 135 115 68 59 58 99 69 99 154 145 134 134 137 134 138 130 136 126 114 121 128 135 127 116 104 104 99 90 77 68 66 58 49 40 32 32 27 24 25 27 22 24 24 19 11 12 12 10 7 7 4 3 3 2 1 0 358 358 358 357 354 354 353
204 199 204 204 205 206 206 209 200 198 198 204 197 194 189 181 182 168 156 156 186 143 142 118 114 39 34 35 43 31 26 40 145 137 142 141 130 131 137 120 135 131 149 144 131 125 129 121 109 97 84 78 64 58 52 40 29 30 29 23 21 24 21 21 23 17 12 13 11 9 7 6 4 3 4 1 1 0 359 358 358 356 355 353 353
205 204 208 205 207 209 207 206 201 205 205 203 195 190 185 178 160 160 238 163 187 180 179 121 92 151 136 50 21 28 23 53 87 102 129 143 143 129 147 147 159 158 139 116 110 120 134 114 110 103 92 86 79 68 53 39 23 29 28 23 20 21 20 21 23 16 13 12 9 9 7 6 4 4 2 2 2 0 358 359 358 356 354 354 353
207 205 206 210 211 209 210 205 203 198 199 207 196 197 190 184 180 172 193 308 178 193 176 176 168 151 122 106 198 154 306 354 331 53 353 255 133 131 152 157 174 173 148 117 133 156 134 108 107 104 99 91 82 72 61 44 27 25 27 24 19 24 19 22 19 16 15 11 8 9 8 7 4 5 3 2 2 359 358 358 357 355 354 354 353
207 206 208 209 209 211 210 207 205 199 198 200 202 203 194 193 187 189 161 176 200 209 207 181 136 139 160 184 185 140 222 237 202 242 117 318 170 161 160 164 163 143 124 142 168 164 126 113 108 110 102 94 86 75 69 44 23 13 1 17 21 22 22 20 17 16 15 10 8 9 7 6 5 4 4 3 0 359 358 357 357 356 354 354 354
206 206 205 209 208 210 209 210 207 202 201 204 201 203 198 194 187 184 185 178 196 199 221 195 180 198 140 110 54 206 218 212 146 251 140 174 219 177 201 159 160 164 161 170 181 168 130 109 112 104 102 96 88 85 72 50 27 10 1 13 25 22 22 19 15 15 12 10 7 7 7 5 5 3 4 2 0 359 358 358 357 356 355 354 353
207 206 204 204 207 208 208 206 209 206 202 206 200 198 201 196 195 186 194 193 176 187 207 232 209 206 199 164 163 175 177 219 145 229 293 216 228 249 224 220 165 159 166 160 169 155 135 126 120 109 100 97 97 89 83 55 38 9 10 19 30 24 22 18 15 13 11 10 9 7 7 5 5 4 2 2 1 359 360 358 357 356 355 354 352
210 207 206 205 207 206 206 207 208 208 201 201 202 200 198 200 191 192 194 186 170 189 195 197 221 255 230 225 146 138 139 136 201 93 191 273 212 205 225 220 213 166 168 174 174 136 124 129 117 112 102 104 101 98 85 62 41 22 25 34 30 26 21 22 16 13 11 10 9 8 6 5 4 4 2 3 2 360 359 358 356 355 353 353 351
209 209 207 205 206 208 206 208 210 210 197 205 206 200 197 202 193 195 192 189 187 191 193 191 192 220 194 202 147 109 171 120 151 172 163 173 229 264 288 236 243 235 189 176 177 155 134 120 121 114 113 106 109 107 105 84 61 27 10 33 30 25 20 21 18 17 13 8 7 6 6 5 4 4 4 3 2 1 359 358 356 354 353 351 350
212 210 208 207 205 208 206 210 211 210 202 209 209 200 199 195 194 196 197 197 195 196 184 197 196 208 164 212 145 179 167 207 155 139 142 166 231 193 194 39 236 263 244 208 191 167 145 136 121 121 122 119 115 117 107 92 63 34 25 35 28 24 19 18 18 18 12 8 6 5 6 5 4 4 5 2 2 1 359 357 355 354 352 351 349
214 213 212 210 207 208 210 211 212 210 204 211 209 206 204 203 199 196 196 196 197 191 196 194 199 204 197 176 185 150 162 191 198 174 253 209 175 196 197 174 186 224 222 220 194 175 121 122 118 120 118 119 114 112 109 96 82 50 38 37 28 24 16 14 16 15 12 7 7 7 6 5 4 4 4 2 1 1 358 355 354 353 351 349 349
206 214 214 209 210 208 211 213 211 210 207 210 210 207 205 203 202 200 198 196 192 197 202 199 196 200 204 190 194 186 186 189 203 196 187 185 171 222 193 195 181 165 230 212 192 133 127 128 132 125 128 120 123 117 112 111 81 62 50 39 29 23 16 10 14 15 13 7 7 7 6 4 4 4 3 2 1 359 356 353 354 352 349 346 347
213 214 214 210 208 211 210 210 211 209 212 209 208 205 201 199 198 199 203 202 196 194 197 199 197 200 205 202 203 196 204 200 193 189 193 208 193 192 185 143 48 236 242 129 51 85 87 115 123 131 137 125 117 116 114 119 87 79 61 40 31 23 16 9 15 16 13 7 6 6 4 3 3 3 2 0 360 357 354 352 353 351 349 346 343
219 217 219 208 208 210 208 211 214 213 211 203 208 201 197 197 199 200 201 198 198 194 198 204 194 195 204 204 207 201 209 209 182 190 207 175 174 145 207 124 166 177 208 146 151 61 59 73 97 121 132 119 123 120 128 136 101 88 80 44 35 23 17 14 15 15 12 6 4 4 3 2 1 1 1 359 358 356 353 352 351 351 348 347 341
218 219 218 209 211 214 212 214 215 213 209 209 205 202 198 198 198 200 202 204 197 198 203 202 200 207 197 197 207 207 216 190 190 175 182 159 182 171 153 93 98 166 317 143 158 103 61 43 43 108 110 129 149 141 149 160 108 80 74 64 31 23 18 17 15 14 11 5 2 2 360 360 359 359 0 359 357 354 351 350 350 349 349 346 344
221 225 215 212 216 216 216 217 216 215 210 209 206 202 202 201 200 204 205 199 200 200 206 198 199 201 198 201 203 207 209 193 180 197 183 196 180 168 152 142 75 96 160 349 333 198 162 138 160 279 195 174 162 150 154 143 93 74 70 60 40 20 20 17 14 13 9 5 360 0 357 357 357 357 358 358 354 351 348 348 349 349 347 345 344
227 220 216 212 214 215 216 218 217 215 211 209 205 201 199 200 204 203 207 195 200 202 207 201 203 195 197 199 195 215 204 194 193 194 193 195 183 172 169 165 156 187 201 202 195 225 161 130 213 202 216 183 158 141 132 100 76 67 65 63 49 20 21 19 13 12 6 3 358 360 356 356 357 357 357 355 352 348 346 347 348 348 347 344 345
223 212 213 209 213 213 214 217 216 213 211 208 205 204 199 201 203 202 204 193 200 207 200 196 202 189 194 192 202 204 202 191 192 189 184 171 186 184 180 171 173 153 170 196 222 173 220 169 146 207 189 213 140 126 103 88 76 73 73 67 52 33 27 23 13 13 3 1 356 358 355 357 357 358 356 354 349 347 345 346 347 348 346 344 345
211 208 206 206 211 209 212 213 213 210 211 207 206 205 201 206 205 204 200 184 194 201 203 200 196 185 188 188 199 200 179 176 190 183 176 173 169 181 184 176 159 162 166 174 215 187 149 152 147 158 197 176 139 93 99 84 75 79 79 74 61 47 36 25 13 10 1 357 356 357 355 357 357 356 354 353 348 345 345 346 349 349 346 346 346
204 206 202 207 208 208 209 211 207 211 210 208 205 205 202 206 205 204 194 184 191 197 194 188 189 176 183 191 186 186 166 181 167 169 170 158 167 165 159 144 153 142 160 153 149 235 140 162 97 120 145 184 141 113 89 69 68 84 82 72 58 53 44 19 11 5 358 356 358 358 358 359 359 355 353 353 347 345 346 347 350 348 347 347 346
212 207 206 209 207 207 207 207 207 208 208 209 203 204 200 207 201 201 193 184 186 191 193 194 179 187 187 192 187 176 166 156 168 169 165 163 152 162 162 148 129 132 144 144 156 174 12 163 135 114 140 136 145 110 95 75 66 74 79 56 55 58 34 18 357 356 352 355 357 356 359 2 359 355 353 353 346 347 346 348 349 347 347 348 346
207 208 212 212 210 209 205 206 207 206 205 206 204 202 203 206 204 202 190 188 188 195 186 193 187 182 187 187 185 182 163 168 173 165 158 159 152 158 146 133 139 160 144 130 135 131 28 56 118 152 182 143 72 102 104 84 74 71 63 48 50 53 35 10 346 337 338 354 356 356 2 3 0 358 357 353 346 348 347 349 350 348 348 347 345
202 211 213 212 208 205 205 207 209 207 206 207 203 205 207 210 207 201 188 189 195 195 187 195 190 188 184 188 185 173 174 172 163 169 168 160 167 159 163 153 160 171 175 110 128 139 170 184 95 136 80 51 102 22 133 109 95 84 56 29 14 35 20 3 344 327 326 358 354 358 2 4 2 1 358 354 346 349 349 351 350 349 348 346 345
207 212 212 207 204 201 204 206 207 208 207 208 205 204 202 199 199 200 195 192 194 194 193 199 192 178 172 184 179 166 162 162 172 171 164 171 177 170 164 158 160 162 152 116 124 128 156 186 172 157 151 68 109 130 91 91 92 95 82 29 354 327 348 344 332 323 317 1 353 357 359 4 4 0 357 354 349 350 351 352 351 348 348 346 346
207 213 208 205 200 199 204 205 205 205 205 201 196 202 209 211 213 202 194 198 203 201 196 192 184 178 180 173 180 171 168 173 175 172 174 169 178 169 157 160 150 155 142 113 98 129 153 150 212 167 196 122 57 92 98 90 118 96 91 341 337 330 317 318 316 307 308 358 357 352 356 2 2 359 356 352 349 352 352 355 353 350 350 347 348
209 202 207 200 199 199 201 201 204 207 205 200 200 197 194 194 201 207 209 210 210 207 198 190 183 181 177 182 173 170 172 174 176 177 175 176 182 164 160 154 150 140 125 122 113 104 136 158 148 205 122 85 95 108 131 134 107 92 40 10 276 269 291 286 303 298 317 358 352 348 353 359 357 355 352 351 349 352 354 359 358 354 350 349 350
204 201 197 198 197 200 202 202 200 203 202 196 192 196 201 205 212 215 215 215 215 208 187 180 176 182 178 179 171 173 176 180 181 180 180 179 168 164 154 151 145 139 134 118 115 111 121 140 147 146 171 151 115 135 204 166 148 165 291 312 322 284 237 306 295 279 256 320 324 328 341 346 346 349 347 349 348 352 357 359 358 355 351 349 350
196 197 200 199 201 200 203 201 202 200 204 205 205 203 202 203 207 210 208 202 199 203 194 185 179 180 180 175 172 178 183 185 178 180 179 176 173 169 162 153 149 147 145 142 135 131 136 136 132 156 152 168 151 171 160 111 104 145 185 298 303 256 276 247 294 287 244 297 322 344 336 341 340 339 342 345 345 352 355 352 347 344 350 349 351
191 193 196 199 212 215 213 206 208 204 194 189 195 203 202 200 200 202 193 190 187 185 176 177 180 184 180 175 177 184 187 186 182 184 177 173 165 157 159 148 151 151 154 150 145 147 150 160 168 170 178 162 122 83 104 114 103 263 193 175 231 253 263 292 237 254 287 307 324 333 341 336 325 321 334 338 341 350 349 345 334 330 343 351 351
230 203 193 200 193 208 231 228 225 213 204 203 201 199 199 197 190 192 184 179 179 177 172 167 166 178 184 182 183 187 189 188 191 193 193 175 161 159 163 158 157 158 152 157 160 154 158 161 173 143 162 193 198 175 188 199 204 207 179 171 244 265 289 316 299 264 230 278 309 327 321 326 322 326 323 323 328 343 338 338 326 326 346 350 352
205 186 179 187 184 197 208 223 215 205 215 215 204 201 195 192 189 187 179 183 181 174 168 170 176 185 193 191 192 183 184 188 192 196 200 190 184 171 165 165 163 160 164 163 169 173 165 180 195 175 187 215 205 202 205 208 138 112 145 180 214 266 317 305 288 253 236 349 337 335 310 306 323 303 311 317 318 333 318 322 312 333 348 349 350
171 161 161 175 192 199 207 210 212 212 219 224 215 200 192 181 175 177 183 183 175 172 176 180 189 188 191 191 183 184 185 186 191 193 195 190 179 161 167 172 170 165 161 169 179 172 179 193 180 186 204 216 217 197 208 164 159 168 181 186 194 212 178 334 295 303 258 81 11 338 303 296 23 327 314 300 307 319 324 309 329 341 346 348 349
157 110 142 190 173 159 157 166 202 219 231 217 184 190 187 183 178 179 175 169 172 179 184 189 188 182 182 180 182 172 187 186 177 187 193 187 175 164 166 171 176 180 181 165 167 173 191 183 186 206 194 216 205 187 195 174 184 173 182 174 191 190 176 207 252 252 244 68 13 322 292 282 349 317 315 299 307 307 303 322 336 340 345 347 349
86 96 91 92 92 76 126 176 217 228 233 229 200 194 190 185 181 170 174 177 180 188 185 184 181 180 176 180 175 177 181 181 180 186 180 176 173 163 166 171 177 178 180 198 185 189 175 183 192 198 204 194 189 211 193 176 150 170 167 184 200 199 190 214 234 259 298 65 28 335 282 275 26 335 319 289 299 305 312 324 338 342 343 347 349
79 83 95 114 116 145 171 193 215 250 227 233 192 190 190 183 173 168 169 173 175 175 173 159 157 167 173 169 176 192 184 181 186 181 177 170 162 156 164 173 178 188 190 195 174 174 182 192 186 205 208 176 201 185 171 152 160 179 176 195 189 196 201 216 222 237 286 83 178 288 308 289 23 345 300 283 308 310 301 314 342 339 343 347 351
115 116 119 134 130 141 146 146 161 196 221 192 187 180 176 171 167 161 156 154 158 154 136 138 148 168 182 190 189 188 186 185 187 180 170 169 164 164 164 174 183 190 195 198 195 186 185 196 201 214 151 187 153 141 156 164 163 162 173 181 190 192 176 52 16 311 302 255 139 132 249 280 304 2 269 281 316 307 297 313 330 341 342 348 351
107 111 89 96 117 109 109 133 159 221 265 175 180 176 170 169 161 149 154 160 161 163 181 190 190 187 170 176 188 195 188 190 183 174 171 158 162 164 172 177 183 196 214 210 189 171 177 180 183 170 145 169 159 152 155 151 146 145 134 116 114 133 151 219 245 324 244 288 174 152 264 287 285 68 277 290 308 295 307 325 315 336 346 351 351
118 111 125 128 137 139 143 157 175 193 142 158 179 172 169 166 154 149 141 134 139 177 28 40 108 138 176 172 176 181 168 181 177 177 169 157 165 172 175 181 190 201 222 204 196 190 180 174 176 172 165 174 173 167 165 166 163 149 135 145 198 172 173 196 254 196 254 209 227 167 165 283 290 291 294 280 281 280 277 288 299 318 343 353 351
133 135 133 99 81 115 143 152 164 178 148 154 179 181 174 172 159 151 143 143 136 141 142 162 173 178 185 179 173 172 176 180 178 185 179 171 178 181 179 179 191 210 219 184 179 199 193 189 190 193 194 191 185 184 185 189 188 164 164 199 189 166 200 197 220 203 248 228 227 156 115 232 292 315 295 283 311 258 250 266 282 314 331 341 339
111 114 111 112 104 97 128 146 137 143 130 120 163 177 177 174 158 152 155 160 166 171 171 183 186 184 182 182 183 180 184 183 186 189 187 182 188 185 186 183 198 210 213 176 182 178 181 180 192 187 198 199 195 194 202 204 209 189 191 197 156 184 195 196 190 115 290 259 198 161 168 273 88 281 53 338 336 274 252 247 295 300 284 311 312